Location: Fort Worth, Tx
(32.7431°N, 97.3695°W)
Time: 16:32:44
(UTC-05:00)

Courier 1B Rocket - All Passes

Search period start: 20 February 2024 00:00
Search period end: 01 March 2024 00:00
Orbit: 920 x 1202 km, 28.2° (Epoch: 19 February)

Date Brightness Start Highest point End Pass type
(mag) Time Alt. Az. Time Alt. Az. Time Alt. Az.
20 Feb - 04:20:48 10° SSW 04:25:16 21° SSE 04:29:45 10° ESE visible
20 Feb - 06:12:09 10° WSW 06:18:03 45° SSE 06:24:11 10° E visible
20 Feb - 08:04:57 10° WSW 08:11:11 59° S 08:17:48 10° ESE daylight
20 Feb - 09:58:11 10° W 10:04:24 45° SSW 10:11:03 10° SE daylight
20 Feb - 11:52:25 10° WSW 11:57:28 22° SSW 12:02:45 10° SSE daylight
21 Feb - 03:21:15 10° S 03:24:24 14° SSE 03:27:33 10° ESE night (unlit)
21 Feb - 05:11:28 10° SW 05:17:07 37° SSE 05:22:51 10° E visible
21 Feb - 07:04:00 10° WSW 07:10:07 58° S 07:16:32 10° E visible
21 Feb - 08:57:08 10° W 09:03:19 51° S 09:09:55 10° ESE daylight
21 Feb - 10:50:50 10° WSW 10:56:25 28° SSW 11:02:18 10° SE daylight
22 Feb - 04:10:56 10° SW 04:16:12 28° SSE 04:21:27 10° E visible
22 Feb - 06:03:05 10° WSW 06:09:06 53° S 06:15:18 10° E visible
22 Feb - 07:56:06 10° W 08:02:16 56° S 08:08:45 10° ESE daylight
22 Feb - 09:49:33 10° W 09:55:22 35° SSW 10:01:34 10° SE daylight
22 Feb - 11:44:53 10° WSW 11:48:18 14° SSW 11:51:51 10° S daylight
23 Feb - 03:10:42 10° SSW 03:15:19 21° SSE 03:19:51 10° ESE night (unlit)
23 Feb - 05:02:13 10° WSW 05:08:08 45° SSE 05:14:05 10° E visible
23 Feb - 06:55:06 10° WSW 07:01:13 59° S 07:07:33 10° ESE visible
23 Feb - 08:48:24 10° W 08:54:21 43° SSW 09:00:38 10° SE daylight
23 Feb - 10:42:42 10° WSW 10:47:18 20° SSW 10:52:07 10° SSE daylight
24 Feb - 02:10:56 10° S 02:14:26 15° SSE 02:17:50 10° ESE night (unlit)
24 Feb - 04:01:27 10° SW 04:07:11 37° SSE 04:12:52 10° E visible
24 Feb - 05:54:07 10° WSW 06:00:12 57° S 06:06:24 10° E visible
24 Feb - 07:47:19 10° W 07:53:20 50° S 07:59:37 10° ESE daylight
24 Feb - 09:41:05 10° WSW 09:46:19 26° SSW 09:51:48 10° SSE daylight
25 Feb - 03:00:49 10° SW 03:06:15 29° SSE 03:11:33 10° E night (unlit)
25 Feb - 04:53:07 10° WSW 04:59:12 53° S 05:05:15 10° E visible
25 Feb - 06:46:15 10° W 06:52:19 55° S 06:58:33 10° ESE visible
25 Feb - 08:39:46 10° W 08:45:21 33° SSW 08:51:11 10° SE daylight
25 Feb - 10:35:24 10° SW 10:38:11 13° SSW 10:41:02 10° S daylight
26 Feb - 02:00:25 10° SSW 02:05:20 22° SSE 02:10:04 10° ESE night (unlit)
26 Feb - 03:52:10 10° WSW 03:58:13 46° SSE 04:04:08 10° E visible
26 Feb - 05:45:11 10° W 05:51:19 58° S 05:57:28 10° ESE visible
26 Feb - 07:38:34 10° W 07:44:23 41° SSW 07:50:22 10° SE visible
26 Feb - 09:33:01 10° WSW 09:37:14 18° SSW 09:41:36 10° SSE daylight
27 Feb - 01:00:26 10° S 01:04:24 16° SSE 01:08:13 10° ESE night (unlit)
27 Feb - 02:51:16 10° SW 02:57:15 38° SSE 03:02:59 10° E night (unlit)
27 Feb - 04:44:07 10° WSW 04:50:19 57° S 04:56:24 10° E visible
27 Feb - 06:37:26 10° W 06:43:25 49° S 06:49:28 10° ESE visible
27 Feb - 08:31:20 10° WSW 08:36:19 25° SSW 08:41:26 10° SSE daylight
28 Feb - 00:01:40 10° SSE 00:03:25 11° SSE 00:05:10 10° SE night (unlit)
28 Feb - 01:50:31 10° SW 01:56:16 31° SSE 02:01:46 10° E night (unlit)
28 Feb - 03:43:01 10° WSW 03:49:18 54° S 03:55:21 10° E visible
28 Feb - 05:36:19 10° W 05:42:25 55° S 05:48:30 10° ESE visible
28 Feb - 07:29:56 10° W 07:35:23 32° SSW 07:40:57 10° SE visible
28 Feb - 09:26:02 10° SW 09:28:08 12° SSW 09:30:15 10° S daylight
29 Feb - 00:49:58 10° SSW 00:55:17 24° SSE 01:00:22 10° ESE night (unlit)
29 Feb - 02:41:57 10° WSW 02:48:16 47° SSE 02:54:18 10° E night (unlit)
29 Feb - 04:35:08 10° W 04:41:25 58° S 04:47:31 10° ESE visible
29 Feb - 06:28:40 10° W 06:34:28 40° SSW 06:40:16 10° SE visible
29 Feb - 08:23:19 10° WSW 08:27:14 17° SSW 08:31:13 10° SSE daylight
29 Feb - 23:49:49 10° SSW 23:54:17 18° SSE 23:58:35 10° ESE night (unlit)
